GW4020 Weather Reports


time (UTC)temp
C
wind
direction
speed
KPH
gust
KPH
rain 1hr
cm
rain 24hr
cm
rain mn
cm
humidity
%
barometer
mb
20260506103634 11 339 0.0 0.0 0.13 0.13 0.13 97 1008.3
20260506103131 11 339 0.0 0.0 0.18 0.10 0.10 97 1008.3
20260506102629 11 339 0.0 0.0 0.18 0.10 0.10 96 1008.0
20260506102126 11 339 0.0 0.0 0.13 0.08 0.08 96 1008.1
20260506101623 11 339 0.0 0.0 0.13 0.08 0.08 96 1008.1
20260506101119 11 339 0.0 0.0 0.18 0.05 0.05 96 1008.0
20260506100618 11 339 0.0 0.0 0.18 0.05 0.05 95 1008.0
20260506100116 11 339 0.0 0.0 0.00 0.03 0.03 95 1008.0
20260506095615 11 339 0.0 0.0 0.00 0.03 0.03 95 1008.2
20260506095111 11 339 0.0 0.0 0.00 0.03 0.03 94 1008.0
20260506094608 11 339 0.0 0.0 0.00 0.03 0.03 94 1007.8
20260506094106 11 339 0.0 0.0 0.13 0.03 0.03 93 1007.9
20260506093604 11 339 0.0 0.0 0.13 0.03 0.03 92 1007.8
20260506093101 11 339 0.0 0.0 0.00 0.00 0.00 91 1007.8
20260506092559 12 338 0.0 0.0 0.00 0.00 0.00 90 1008.0
20260506092055 12 339 0.0 0.0 0.00 0.00 0.00 88 1008.0
20260506091554 12 339 0.0 0.0 0.00 0.00 0.00 87 1007.9
20260506091051 12 339 0.0 0.0 0.00 0.00 0.00 85 1007.9
20260506090549 12 339 0.0 0.0 0.00 0.00 0.00 81 1007.9
20260506090044 13 340 0.0 0.0 0.00 0.00 0.00 80 1007.8
20260506085542 13 343 0.0 0.0 0.00 0.00 0.00 78 1007.7
20260506085038 13 344 0.0 0.0 0.00 0.00 0.00 78 1007.8
20260506084535 13 344 0.0 0.0 0.00 0.00 0.00 79 1008.0
20260506084031 13 344 0.0 0.0 0.00 0.00 0.00 78 1008.2
20260506083529 13 343 0.0 0.0 0.00 0.00 0.00 79 1008.2
20260506083026 13 349 0.0 0.0 0.00 0.00 0.00 78 1008.0
20260506082523 13 351 0.0 0.0 0.00 0.00 0.00 76 1008.2
20260506082018 14 351 0.0 0.0 0.00 0.00 0.00 72 1008.2
20260506081517 15 342 0.0 0.0 0.00 0.00 0.00 69 1008.3
20260506081014 15 315 1.6 3.2 0.00 0.00 0.00 64 1008.3
20260506080511 15 359 0.0 0.0 0.00 0.00 0.00 61 1008.3
20260506073455 15 343 0.0 1.6 0.00 0.00 0.00 61 1007.9
20260506072952 15 343 0.0 0.0 0.00 0.00 0.00 62 1008.0
20260506072449 16 347 0.0 0.0 0.00 0.00 0.00 62 1007.9
20260506071947 15 356 0.0 1.6 0.00 0.00 0.00 59 1008.1
20260506071444 16 309 1.6 1.6 0.00 0.00 0.00 60 1007.9
20260506070941 16 6 0.0 0.0 0.00 0.00 0.00 62 1008.0
20260506070438 16 55 1.6 3.2 0.00 0.00 0.00 60 1007.9
20260506062416 13 357 0.0 0.0 0.00 0.00 0.00 72 1008.4
20260506061911 12 350 0.0 0.0 0.00 0.00 0.00 78 1008.7
20260506061408 12 357 0.0 0.0 0.00 0.00 0.00 84 1008.6
20260506060906 12 3 1.6 1.6 0.00 0.00 0.00 86 1008.4
20260506060404 11 331 0.0 0.0 0.00 0.00 0.00 86 1008.9
20260506051336 11 13 0.0 0.0 0.00 0.00 0.00 86 1009.5
20260506050833 11 12 0.0 0.0 0.00 0.00 0.00 86 1009.4
20260506050330 11 12 0.0 0.0 0.00 0.00 0.00 86 1009.5
20260506044821 11 11 0.0 0.0 0.00 0.00 0.00 86 1009.5
20260506044319 11 11 0.0 0.0 0.00 0.00 0.00 86 1009.5
20260506043816 11 11 0.0 0.0 0.00 0.00 0.00 86 1009.5
20260506043313 11 11 0.0 0.0 0.00 0.00 0.00 85 1009.4
20260506042812 11 11 0.0 0.0 0.00 0.00 0.00 85 1009.5
20260506042310 11 11 0.0 0.0 0.00 0.00 0.00 85 1009.2
20260506041809 12 11 0.0 0.0 0.00 0.00 0.00 84 1009.5
20260506041305 12 11 0.0 0.0 0.00 0.00 0.00 84 1009.3
20260506040802 12 11 0.0 0.0 0.00 0.00 0.00 83 1009.5
20260506040259 12 10 0.0 0.0 0.00 0.00 0.00 84 1009.4
20260506035756 11 10 0.0 0.0 0.00 0.05 0.05 85 1009.6
20260506035253 11 10 0.0 0.0 0.00 0.05 0.05 85 1009.7
20260506034750 11 10 0.0 0.0 0.00 0.05 0.05 85 1009.7
20260506034247 12 10 0.0 0.0 0.00 0.05 0.05 84 1009.8
20260506033744 12 10 0.0 0.0 0.00 0.05 0.05 82 1009.6
20260506033241 12 10 0.0 0.0 0.00 0.05 0.05 83 1009.8
20260506032738 12 8 0.0 0.0 0.00 0.05 0.05 82 1009.7
20260506032235 12 8 0.0 0.0 0.00 0.05 0.05 82 1009.8
20260506031731 12 8 0.0 0.0 0.00 0.05 0.05 82 1009.7
20260506031229 12 8 0.0 0.0 0.00 0.05 0.05 82 1009.8
20260506030727 12 8 0.0 0.0 0.00 0.05 0.05 82 1009.8
20260506030225 12 8 0.0 0.0 0.00 0.05 0.05 82 1009.9
20260506025721 12 8 0.0 0.0 0.00 0.05 0.05 82 1009.7
20260506025217 12 8 0.0 0.0 0.00 0.05 0.05 81 1009.6
20260506024715 12 8 0.0 0.0 0.00 0.05 0.05 81 1009.8
20260506024211 13 8 0.0 0.0 0.00 0.05 0.05 80 1009.8
20260506023707 13 8 0.0 0.0 0.00 0.05 0.05 78 1009.8
20260506023205 13 8 0.0 0.0 0.00 0.05 0.05 77 1009.9
20260506022702 13 8 0.0 0.0 0.00 0.05 0.05 76 1010.0
20260506022159 14 8 0.0 0.0 0.00 0.05 0.05 76 1009.9
20260506021657 14 8 0.0 0.0 0.00 0.05 0.05 74 1009.9
20260506021154 15 8 0.0 0.0 0.00 0.05 0.05 74 1009.7
20260506020651 15 8 0.0 0.0 0.00 0.05 0.05 72 1009.7
20260506020148 15 8 0.0 0.0 0.00 0.05 0.05 71 1009.8
20260506015646 15 8 0.0 0.0 0.00 0.05 0.05 70 1009.7
20260506015143 16 0 0.0 0.0 0.00 0.05 0.05 69 1009.8
20260506014641 16 345 0.0 0.0 0.00 0.05 0.05 69 1009.7
20260506014136 16 15 0.0 0.0 0.00 0.05 0.05 68 1009.5
20260506013634 16 13 0.0 0.0 0.00 0.05 0.05 67 1009.7
20260506013131 16 331 1.6 1.6 0.00 0.05 0.05 67 1009.7
20260506012627 16 359 0.0 0.0 0.00 0.05 0.05 66 1009.7
20260506012124 16 344 0.0 0.0 0.00 0.05 0.05 66 1009.6
20260506011622 16 7 0.0 0.0 0.00 0.05 0.05 65 1009.5
20260506011117 16 356 0.0 1.6 0.00 0.05 0.05 64 1009.7
20260506010611 16 50 1.6 3.2 0.00 0.05 0.05 65 1009.4
20260506010107 16 8 0.0 1.6 0.00 0.05 0.05 67 1009.4
20260506005604 16 331 0.0 0.0 0.00 0.05 0.05 66 1009.3
20260506005100 16 10 0.0 0.0 0.00 0.05 0.05 66 1009.4
20260506004558 17 10 0.0 0.0 0.00 0.05 0.05 65 1009.3
20260506004055 17 11 0.0 0.0 0.00 0.05 0.05 64 1009.2
20260506003551 17 6 0.0 0.0 0.00 0.05 0.05 62 1009.3
20260506003048 17 12 0.0 1.6 0.00 0.05 0.05 60 1009.1
20260506002544 17 28 1.6 1.6 0.00 0.05 0.05 62 1009.1
20260506002040 17 326 0.0 0.0 0.00 0.05 0.05 64 1009.1
20260506001536 17 330 1.6 1.6 0.00 0.05 0.05 62 1009.1
20260506001034 17 345 0.0 0.0 0.00 0.05 0.05 61 1009.1
20260506000531 17 12 0.0 0.0 0.00 0.05 0.05 61 1009.0
20260506000028 18 358 0.0 0.0 0.00 0.05 0.05 60 1009.1
20260505235526 18 359 0.0 0.0 0.00 0.05 0.05 58 1009.1
20260505235022 18 355 0.0 1.6 0.00 0.05 0.05 58 1008.9
20260505234520 18 342 0.0 1.6 0.00 0.05 0.05 58 1009.0
20260505234016 19 353 0.0 0.0 0.00 0.05 0.05 57 1008.9
20260505233514 19 11 0.0 1.6 0.00 0.05 0.05 54 1008.9
20260505233011 19 353 0.0 1.6 0.00 0.05 0.05 56 1009.0
20260505232509 20 42 3.2 6.4 0.00 0.05 0.05 55 1009.1
20260505232006 20 14 0.0 0.0 0.00 0.05 0.05 55 1008.7
20260505231503 20 328 1.6 1.6 0.00 0.05 0.05 54 1008.7
20260505231002 20 68 3.2 4.8 0.00 0.05 0.05 53 1008.7
20260505230459 20 316 4.8 4.8 0.00 0.05 0.05 51 1008.6
20260505225955 20 329 0.0 1.6 0.00 0.05 0.05 53 1008.6
20260505225452 21 323 3.2 4.8 0.00 0.05 0.05 51 1008.6
20260505224948 21 244 4.8 6.4 0.00 0.05 0.05 50 1008.6
20260505224445 21 269 3.2 3.2 0.00 0.05 0.05 51 1008.3
20260505223942 21 312 3.2 4.8 0.00 0.05 0.05 50 1008.7
20260505223439 21 310 3.2 4.8 0.00 0.05 0.05 49 1008.7
20260505222935 21 340 3.2 4.8 0.00 0.05 0.05 48 1008.3
20260505222432 21 320 1.6 3.2 0.00 0.05 0.05 49 1008.2
20260505221928 21 336 1.6 3.2 0.00 0.05 0.05 47 1008.2
20260505221425 21 255 3.2 3.2 0.00 0.05 0.05 47 1008.1
20260505220922 21 249 6.4 9.7 0.00 0.05 0.05 47 1008.2
20260505220419 21 345 3.2 4.8 0.00 0.05 0.05 46 1008.2
20260505215917 21 324 1.6 1.6 0.00 0.05 0.05 49 1008.1
20260505215415 22 314 0.0 1.6 0.00 0.05 0.05 48 1007.9
20260505214912 21 305 4.8 4.8 0.00 0.05 0.05 48 1008.0
20260505214410 22 336 1.6 3.2 0.00 0.05 0.05 47 1007.8
20260505213907 21 339 3.2 4.8 0.00 0.05 0.05 46 1008.1
20260505213405 22 271 6.4 9.7 0.00 0.05 0.05 45 1008.0
20260505212901 22 327 4.8 6.4 0.00 0.05 0.05 47 1008.1
20260505212358 22 206 6.4 6.4 0.00 0.05 0.05 45 1007.9
20260505211854 22 326 6.4 6.4 0.00 0.05 0.05 45 1007.9
20260505211351 22 61 9.7 14.5 0.00 0.05 0.05 45 1008.0
20260505210848 22 334 3.2 3.2 0.00 0.05 0.05 47 1007.7
20260505210345 22 289 1.6 3.2 0.00 0.05 0.05 46 1007.7
20260505205841 22 298 8.0 9.7 0.00 0.05 0.05 47 1007.7
20260505205340 22 329 1.6 1.6 0.00 0.05 0.05 47 1007.7
20260505204837 22 341 3.2 3.2 0.00 0.05 0.05 47 1007.6
20260505204334 23 271 4.8 6.4 0.00 0.05 0.05 47 1007.7
20260505203831 23 333 8.0 11.3 0.00 0.05 0.05 45 1007.6
20260505203328 23 11 4.8 6.4 0.00 0.05 0.05 46 1007.6
20260505202824 22 319 3.2 3.2 0.00 0.05 0.05 48 1007.6
20260505202320 22 322 4.8 6.4 0.00 0.05 0.05 47 1007.6
20260505201817 22 27 3.2 3.2 0.00 0.05 0.05 48 1007.7
20260505201315 22 218 4.8 6.4 0.00 0.05 0.05 47 1007.7
20260505200813 22 314 3.2 4.8 0.00 0.05 0.05 47 1007.8
20260505200309 22 334 8.0 11.3 0.00 0.05 0.05 47 1007.3
20260505195804 22 254 6.4 11.3 0.00 0.05 0.05 47 1007.6
20260505195305 22 279 6.4 9.7 0.00 0.05 0.05 48 1007.6
20260505194759 22 172 4.8 6.4 0.00 0.05 0.05 48 1007.6
20260505194256 22 13 4.8 9.7 0.00 0.05 0.05 46 1007.4
20260505193751 22 332 3.2 4.8 0.00 0.05 0.05 48 1007.7
20260505193249 22 352 6.4 9.7 0.00 0.05 0.05 47 1007.4
20260505192747 22 175 4.8 9.7 0.00 0.05 0.05 47 1007.4
20260505192245 22 69 4.8 6.4 0.00 0.05 0.05 47 1007.5
20260505191742 22 126 11.3 14.5 0.00 0.05 0.05 46 1007.5
20260505191241 23 183 6.4 12.9 0.00 0.05 0.05 47 1007.1
20260505190737 23 118 11.3 14.5 0.00 0.05 0.05 45 1007.5
20260505190231 24 312 3.2 4.8 0.00 0.05 0.05 45 1007.4
20260505185728 23 315 4.8 6.4 0.00 0.05 0.05 47 1007.4
20260505185224 23 328 11.3 14.5 0.00 0.05 0.05 46 1007.6
20260505184720 23 302 8.0 12.9 0.00 0.05 0.05 46 1007.7
20260505184218 23 312 6.4 6.4 0.00 0.05 0.05 46 1007.9
20260505183714 23 300 3.2 3.2 0.00 0.05 0.05 45 1007.7
20260505183212 23 279 14.5 17.7 0.00 0.05 0.05 43 1008.2
20260505182707 23 15 3.2 3.2 0.00 0.05 0.05 43 1008.0
20260505182205 23 54 3.2 3.2 0.00 0.05 0.05 45 1008.1
20260505181701 22 344 1.6 3.2 0.00 0.05 0.05 46 1008.2
20260505181159 22 281 6.4 9.7 0.00 0.05 0.05 49 1008.3
20260505180655 22 322 4.8 4.8 0.00 0.05 0.05 48 1008.3
20260505180153 22 347 6.4 6.4 0.00 0.05 0.05 49 1008.3
20260505175648 23 257 20.9 27.4 0.00 0.05 0.05 46 1008.2
20260505175145 22 344 1.6 1.6 0.00 0.05 0.05 48 1008.3
20260505174642 22 338 9.7 12.9 0.00 0.05 0.05 48 1008.7
20260505174137 23 262 6.4 9.7 0.00 0.05 0.05 48 1008.4
20260505173634 22 286 14.5 17.7 0.00 0.05 0.05 47 1008.7
20260505173131 22 294 4.8 6.4 0.00 0.05 0.05 49 1008.7
20260505172629 22 51 6.4 14.5 0.00 0.05 0.05 47 1008.6
20260505172126 22 28 9.7 22.5 0.00 0.05 0.05 48 1008.7
20260505171620 23 267 9.7 12.9 0.00 0.05 0.05 49 1008.7
20260505171118 23 280 8.0 11.3 0.00 0.05 0.05 48 1008.6
20260505170614 23 320 9.7 17.7 0.00 0.05 0.05 49 1008.2
20260505170111 22 358 3.2 4.8 0.00 0.05 0.05 50 1008.1
20260505165606 22 266 16.1 20.9 0.00 0.05 0.05 50 1008.2
20260505165102 22 86 3.2 4.8 0.00 0.05 0.05 50 1008.6
20260505164558 22 274 4.8 4.8 0.00 0.05 0.05 50 1008.8
20260505164055 22 307 6.4 9.7 0.00 0.05 0.05 51 1009.0
20260505163554 22 273 8.0 11.3 0.00 0.05 0.05 51 1008.7
20260505163051 22 260 6.4 6.4 0.00 0.05 0.05 51 1009.0
20260505162544 22 256 8.0 11.3 0.00 0.05 0.05 54 1009.1
20260505162041 22 300 12.9 16.1 0.00 0.05 0.05 52 1009.2
20260505161537 22 330 1.6 3.2 0.00 0.05 0.05 53 1009.4
20260505161035 22 246 4.8 6.4 0.00 0.05 0.05 52 1009.5
20260505160533 22 231 11.3 14.5 0.00 0.05 0.05 51 1009.2
20260505153009 21 194 9.7 12.9 0.00 0.05 0.05 54 1009.6
20260505152506 21 187 9.7 14.5 0.00 0.05 0.05 52 1009.5
20260505152001 21 13 8.0 9.7 0.00 0.05 0.05 55 1009.5
20260505151451 21 278 4.8 6.4 0.00 0.05 0.05 55 1009.7
20260505150948 21 349 3.2 4.8 0.00 0.05 0.05 54 1009.5
20260505150440 21 277 6.4 9.7 0.00 0.05 0.05 56 1009.6
20260505140410 19 100 4.8 4.8 0.00 0.05 0.05 60 1009.3
20260505124823 15 248 3.2 6.4 0.00 0.00 0.00 76 1010.7
20260505124320 17 279 6.4 9.7 0.00 0.00 0.00 66 1010.7
20260505123816 18 325 4.8 4.8 0.00 0.00 0.00 59 1010.3
20260505123313 18 350 3.2 4.8 0.00 0.00 0.00 58 1010.2
20260505122809 17 288 4.8 6.4 0.00 0.00 0.00 59 1009.9
20260505122307 17 302 6.4 6.4 0.00 0.00 0.00 58 1009.7
20260505121803 17 2 0.0 1.6 0.00 0.00 0.00 59 1009.7
20260505121300 17 353 1.6 3.2 0.00 0.00 0.00 60 1009.8
20260505120756 18 311 3.2 4.8 0.00 0.00 0.00 59 1009.9
20260505120253 17 26 4.8 6.4 0.00 0.00 0.00 58 1009.7
20260505115751 16 11 1.6 3.2 0.00 0.00 0.00 61 1009.6
20260505115249 16 335 1.6 1.6 0.00 0.00 0.00 67 1009.6
20260505114746 16 347 1.6 3.2 0.00 0.00 0.00 65 1009.6
20260505114242 15 352 0.0 0.0 0.00 0.00 0.00 66 1009.6
20260505113739 15 287 1.6 1.6 0.00 0.00 0.00 66 1009.7
20260505113235 15 344 3.2 4.8 0.00 0.00 0.00 67 1009.7
20260505112731 15 16 0.0 1.6 0.00 0.00 0.00 67 1009.8
20260505112229 15 336 4.8 6.4 0.00 0.00 0.00 69 1009.7
20260505111729 14 346 1.6 1.6 0.00 0.00 0.00 70 1009.7
20260505111225 14 349 1.6 1.6 0.00 0.00 0.00 70 1009.6
20260505110721 14 299 3.2 4.8 0.00 0.00 0.00 71 1009.4
20260505110219 13 8 0.0 1.6 0.00 0.00 0.00 71 1009.5